Voltar ao catálogo

NOAA 16 DEB

AtivoSSO
NORAD 41429·DEBRIS·🇺🇸 United States

Lançado Sep 21, 2000 de Vandenberg Space Force Base

Loading…

Próximas Passagens (próximas 24 horas)

TLE

AtualizadoSource: Space-Track

Época: Sep 13, 2026, 11:11 UTC

1 41429U 00055LJ  26256.46597340  .00002399  00000-0  93500-3 0  9992
2 41429  98.7062 342.9846 0017318  89.0624 271.2543 14.30569508545716

Acompanhe NOAA 16 DEB em tempo real com AllMySat

Download on the App Store